Location: Piedmont
(45.8748°N, 74.1254°W)
Time: 00:04:51
(UTC+00:00)

N. Korean satellite - Pass Details

Date: 09 December 2021
Orbit: 447 x 491 km, 97.3° (Epoch: 21 January)

Event Time Altitude Azimuth Distance (km) Brightness Sun altitude
Rises 10:16:29 0° 12° (NNE) 2,461 10.2 -21.7°
Reaches altitude 10° 10:18:31 10° 12° (NNE) 1,584 9.2 -21.3°
Maximum altitude 10:21:55 89° 100° (E) 454 6.3 -20.7°
Drops below altitude 10° 10:25:17 10° 193° (SSW) 1,574 9.1 -20.2°
Sets 10:27:18 0° 194° (SSW) 2,445 10.1 -19.8°
